Flag for Norway Weather past 2 weeks in Florø, Norway

Now
61 °F

Scattered showers. Scattered clouds.


Feels Like: 61 °F
Forecast: 56 / 62 °F
Wind: 9 mph from Northwest

Location: Floro

Current Time: Aug 22, 2014 at 3:46:11 PM

Latest Report: Aug 22, 2014 at 2:50 PM


Visibility: N/A

Pressure: 29.62 "Hg

Humidity: 63%

Dew point: 48 °F

Location of FlorøLocation

Historic Weather in Florø — Graph

°F

Florø temperature yesterday

Maximum temperature yesterday: 75 °F (at 8:50 PM)
Minimum temperature yesterday: 52 °F (at 6:20 AM)
Average temperature yesterday: 56 °F

Past Weeks' High & Low Weather Summary

 TemperatureHumidityPressure
High75 °F (Aug 21, 8:50 PM)100% (Aug 9, 6:20 AM)29.95 "Hg (Aug 9, 6:20 AM)
Low52 °F (Aug 16, 6:20 PM)39% (Aug 21, 8:50 PM)29.21 "Hg (Aug 11, 4:20 PM)
Average60 °F72%29.53 "Hg
* Reported Aug 7 2:20 PM — Aug 22 2:20 PM, Florø, Weather by CustomWeather, © 2014

Note: Actual official high and low records may vary slightly from our data, if they occured in-between our weather recording intervals... More about our weather records

Advertising

Florø weather history for previous 24 hours

 ConditionsComfort  
Time TempWeatherWind HumidityBarometerVisibility
2:20 PM
Aug 22
63 °FScattered showers. Scattered clouds.10 mph59%29.62 "HgN/A
1:20 PM61 °FScattered clouds.9 mph63%29.62 "HgN/A
12:50 PM59 °FPassing clouds.7 mph63%29.62 "HgN/A
12:20 PM61 °FPassing clouds.6 mph59%29.62 "HgN/A
11:50 AM59 °FPassing clouds.6 mph63%29.62 "HgN/A
11:20 AM59 °FPassing clouds.1 mph59%29.62 "HgN/A
10:50 AM59 °FPassing clouds.5 mph63%29.62 "HgN/A
10:20 AM57 °FPassing clouds.5 mph72%29.62 "HgN/A
9:50 AM55 °FScattered clouds.2 mph77%29.62 "HgN/A
9:20 AM55 °FScattered clouds.5 mph77%29.62 "HgN/A
8:50 AM54 °FScattered clouds.5 mph88%29.65 "HgN/A
8:20 AM54 °FScattered clouds.6 mph88%29.65 "HgN/A
7:50 AM54 °FScattered clouds.5 mph88%29.65 "HgN/A
6:50 AM52 °FPassing clouds.5 mph88%29.65 "HgN/A
6:20 AM52 °FPassing clouds.5 mph88%29.65 "HgN/A
5:50 AM54 °FPassing clouds.5 mph88%29.65 "HgN/A
10:50 PM
Aug 21
55 °FPassing clouds.6 mph77%29.71 "HgN/A
10:20 PM55 °FPartly sunny.6 mph77%29.71 "HgN/A
9:50 PM55 °FPartly sunny.6 mph77%29.71 "HgN/A
9:20 PM55 °FScattered clouds.8 mph77%29.68 "HgN/A
8:50 PM75 °FScattered clouds.8 mph39%29.68 "HgN/A
8:20 PM55 °FScattered showers. Passing clouds.9 mph77%29.68 "HgN/A
7:50 PM57 °FScattered showers. Scattered clouds.9 mph67%29.68 "HgN/A
6:50 PM57 °FScattered showers. Scattered clouds.9 mph67%29.68 "HgN/A
6:20 PM57 °FScattered showers. Passing clouds.10 mph72%29.71 "HgN/A
5:50 PM59 °FScattered showers. Scattered clouds.9 mph68%29.68 "HgN/A
5:20 PM57 °FScattered showers. Scattered clouds.10 mph67%29.71 "HgN/A
4:50 PM59 °FScattered showers. Scattered clouds.12 mph63%29.68 "HgN/A
3:50 PM57 °FScattered showers. Scattered clouds.12 mph72%29.71 "HgN/A
3:20 PM59 °FScattered showers. Scattered clouds.10 mph68%29.71 "HgN/A
Weather by CustomWeather, © 2014

See weather overviewHow to use our weather pages